Wind_Speed
36 38 39 38 39 40 40 41 42 42 43 43 43 42 41 41 40 39 38 38 37 36 36 36 37 37 36 35 35 34 35 35 36 36 36 36 36 37 38 38 38 38 38
35 36 38 38 39 39 39 41 41 41 42 43 43 43 43 42 42 41 40 40 38 37 36 36 36 37 36 36 36 36 35 36 36 37 38 38 37 36 37 37 38 38 38
34 34 36 38 39 38 38 39 41 41 41 42 43 43 43 42 42 43 41 41 40 39 38 37 37 36 36 36 36 36 37 37 37 38 38 38 38 38 37 38 38 37 38
32 33 34 35 37 38 38 38 39 40 41 42 42 43 42 42 42 43 43 42 42 41 40 41 40 39 39 38 37 37 38 38 38 38 38 39 39 39 39 39 39 39 38
30 32 33 34 36 37 37 38 39 39 39 40 42 43 43 43 43 43 42 42 42 42 42 42 42 41 40 39 39 39 39 39 39 39 39 39 40 41 41 41 40 39 39
30 31 33 34 35 36 36 37 38 39 39 40 41 42 43 43 43 43 43 43 43 43 42 43 43 42 41 41 40 40 40 41 41 42 41 41 41 41 42 42 42 42 42
31 31 31 33 35 36 37 37 38 39 40 40 41 42 42 42 42 43 44 44 44 44 43 43 43 43 43 42 42 42 41 42 42 43 43 43 43 43 43 44 44 44 44
30 30 31 31 33 36 37 38 39 40 41 41 42 42 42 42 42 43 43 44 44 44 43 43 43 44 44 44 43 42 42 43 44 44 43 44 44 45 45 45 45 44 44
31 31 31 31 31 33 36 37 39 40 41 42 43 43 43 43 43 43 43 44 44 43 43 44 44 45 46 46 46 45 44 44 44 45 45 44 45 45 46 46 46 46 46
30 31 32 32 33 34 35 37 38 39 40 41 42 43 43 44 43 43 43 43 44 44 44 45 45 46 47 47 47 47 48 48 47 46 46 46 47 47 47 47 48 48 48
31 32 33 33 33 34 34 35 36 38 39 41 42 43 43 43 43 44 43 44 44 45 45 45 46 46 47 47 47 47 48 48 49 49 49 48 48 48 48 48 49 49 49
30 31 32 33 33 34 34 34 35 37 38 40 41 42 42 42 42 43 43 43 44 45 45 46 46 46 46 47 47 47 48 48 49 49 49 49 49 49 49 49 50 50 50
30 30 31 32 33 33 34 35 36 36 37 38 40 41 42 43 43 43 43 44 44 44 45 46 46 45 45 46 47 48 48 47 48 48 49 49 49 50 50 50 50 50 50
31 31 32 32 32 33 33 34 35 37 38 38 39 41 42 42 43 44 44 45 45 45 45 46 46 45 45 46 46 47 47 48 48 49 49 50 50 50 51 50 50 51 51
30 31 31 32 32 33 33 33 34 35 37 39 39 41 42 43 43 43 44 45 45 45 46 46 46 47 47 47 48 48 48 48 49 49 50 50 50 51 51 51 51 51 51
30 30 31 31 32 32 33 33 33 34 35 37 39 40 41 41 42 43 44 45 45 45 46 46 46 47 48 49 49 49 49 49 50 50 50 51 51 50 50 50 50 50 50
31 31 30 30 31 31 33 33 34 34 35 36 36 37 38 39 40 42 43 44 45 45 45 46 47 47 48 49 49 50 50 50 51 50 50 50 50 50 50 50 50 50 49
31 31 31 31 31 31 32 33 34 34 34 34 35 36 37 37 38 39 41 42 43 45 45 45 45 46 47 47 48 48 49 50 50 50 50 50 50 49 49 49 49 49 49
29 30 30 30 31 31 32 33 33 34 34 34 35 36 37 37 38 39 40 41 41 42 42 43 44 44 45 46 47 48 49 49 49 49 49 49 49 49 48 48 48 48 48
29 29 29 30 31 32 32 32 33 34 34 34 35 35 36 36 37 38 39 40 40 40 41 41 42 42 43 44 45 46 47 48 48 48 48 48 48 47 47 47 46 46 46
27 27 27 29 30 31 32 33 34 33 33 33 34 34 34 35 36 37 38 39 39 39 39 40 41 41 41 42 43 44 45 45 46 45 45 45 45 46 46 45 44 44 45
26 27 27 28 28 29 30 31 32 32 33 33 33 33 33 34 35 36 38 38 38 38 39 39 40 40 40 41 41 41 42 42 42 42 43 43 43 44 44 44 44 45 45
27 27 27 28 28 29 29 29 30 30 31 31 32 32 32 33 34 35 36 37 37 37 38 39 39 39 39 39 39 39 39 39 40 40 40 41 41 41 42 44 44 45 45
27 27 27 28 28 28 29 29 29 30 30 31 31 32 32 32 33 34 35 35 36 37 37 37 37 37 37 37 38 37 37 38 38 38 39 39 39 40 42 43 44 45 45
28 28 28 28 29 29 29 29 30 31 31 31 31 32 32 33 33 33 34 34 35 35 35 35 35 35 36 36 36 36 36 36 37 37 38 38 38 39 40 40 41 42 43
27 28 28 28 28 29 29 29 29 30 30 30 31 31 31 32 33 33 33 33 33 33 33 34 34 34 35 35 35 35 35 36 36 37 37 37 37 38 38 39 39 40 40
Wind_Direction
249 249 249 249 249 250 250 249 249 249 250 251 252 252 251 251 251 253 256 257 258 260 262 262 262 260 259 258 259 259 260 261 262 263 264 265 266 266 267 266 267 268 268
249 250 249 248 249 250 251 250 250 251 251 252 252 253 253 253 253 253 256 257 258 259 261 261 261 261 260 259 259 260 261 263 264 265 265 266 266 267 267 266 267 268 268
250 250 250 249 249 250 250 250 249 250 252 252 252 253 254 255 255 255 256 257 257 257 259 260 261 261 260 261 262 263 263 263 264 266 267 267 266 266 265 265 266 267 268
250 250 250 250 249 249 250 250 249 250 251 252 252 253 254 255 256 257 256 256 256 256 258 258 259 261 260 260 262 263 263 264 264 264 266 267 267 266 266 266 267 268 269
250 250 251 251 250 249 250 250 250 251 252 252 253 253 254 255 256 257 257 257 257 257 256 257 259 261 261 261 261 262 263 264 264 265 266 266 267 267 267 268 268 269 270
252 252 253 252 251 251 251 250 251 252 253 253 254 255 256 255 256 257 257 259 259 258 258 258 258 259 261 261 260 261 263 264 264 265 266 266 267 268 269 269 269 270 271
252 253 254 254 253 252 252 252 252 253 253 254 255 256 256 256 256 256 257 258 259 259 259 258 258 258 259 262 262 263 263 263 264 265 265 266 267 268 269 270 271 271 271
252 254 256 256 255 253 253 253 254 254 255 255 255 255 256 257 256 256 257 259 260 261 260 259 259 258 260 262 263 264 264 264 264 265 266 266 267 267 269 270 270 271 272
255 256 256 257 257 256 254 254 254 255 255 255 255 256 256 257 257 257 258 259 259 260 260 260 261 261 263 264 264 263 264 265 266 266 266 267 267 268 269 270 270 271 272
255 256 257 259 259 259 259 257 257 256 255 253 254 256 257 257 257 259 258 258 259 259 260 260 261 262 263 264 264 264 265 266 266 266 267 267 267 268 269 270 270 271 271
258 258 257 257 258 259 260 260 259 257 255 254 255 255 256 257 257 257 258 258 259 260 260 261 261 262 263 264 265 265 266 267 267 266 267 267 267 268 269 270 270 270 270
262 260 258 257 258 259 260 261 261 260 258 256 255 255 256 257 257 257 258 260 261 261 262 262 262 263 263 264 265 266 266 266 266 267 267 268 269 269 269 269 269 269 269
263 262 261 260 261 261 262 263 263 263 261 260 258 258 258 257 258 259 259 260 262 262 263 263 263 264 264 264 265 265 266 265 266 267 268 269 270 270 271 270 270 270 270
263 262 262 263 264 263 264 265 265 263 262 261 261 260 260 260 260 260 260 261 261 262 263 263 264 264 264 265 265 265 265 266 267 268 269 270 271 272 272 272 271 270 270
265 264 263 264 265 266 266 266 266 265 263 262 262 263 261 261 261 260 260 261 262 263 263 264 265 264 264 266 267 267 267 268 269 269 270 271 271 272 273 272 272 272 271
265 266 267 267 267 267 266 267 267 266 266 265 265 264 263 263 262 262 262 262 262 264 264 265 266 266 266 267 267 268 269 269 270 271 271 272 272 272 273 273 273 273 273
267 267 267 269 269 269 268 268 268 268 267 267 266 266 265 264 264 264 264 264 264 265 266 267 267 267 268 268 269 269 270 270 270 271 271 271 272 273 273 273 273 273 273
268 269 269 269 269 270 270 270 270 270 270 268 267 267 266 266 267 267 267 267 267 267 267 267 268 268 269 269 270 270 271 271 271 270 270 270 271 272 273 273 273 273 273
267 268 269 270 270 271 271 271 270 270 270 270 269 268 267 267 267 267 268 268 268 269 269 269 270 270 269 270 270 270 270 270 270 270 269 269 271 272 272 273 273 273 273
269 269 269 271 272 272 271 270 270 270 270 270 269 269 269 268 268 268 268 269 269 270 270 270 272 271 271 270 270 271 270 269 269 270 269 270 270 270 271 272 272 271 272
270 269 270 271 272 273 273 272 272 271 271 271 271 271 270 269 269 269 269 270 270 271 271 272 272 273 273 273 272 272 271 270 269 269 270 269 269 270 270 271 272 272 272
271 272 273 272 273 274 274 274 273 272 271 271 272 273 272 271 271 272 272 272 271 271 272 273 273 273 274 274 274 272 271 271 270 270 270 270 269 269 270 270 271 272 273
273 274 275 276 275 274 274 275 274 273 271 271 272 273 274 275 275 275 274 274 274 273 273 273 273 274 274 273 273 272 272 272 272 272 271 270 270 270 270 271 273 273 274
273 275 277 278 278 277 277 274 275 274 272 272 273 274 275 277 277 277 277 277 277 276 274 273 273 273 273 273 272 272 272 272 273 273 272 272 271 271 271 272 274 275 275
273 275 277 279 280 279 279 277 277 276 274 274 274 275 277 278 278 279 279 279 277 277 276 274 274 273 273 273 272 272 273 273 273 273 273 273 273 273 274 275 275 276 276
275 275 277 279 281 281 280 279 279 278 276 276 277 277 278 279 279 279 280 279 278 277 276 274 274 274 273 272 272 272 273 274 274 274 273 273 274 275 275 275 276 276 276
Height
5732 5734 5735 5737 5739 5741 5743 5745 5747 5750 5752 5754 5755 5757 5758 5760 5762 5763 5764 5764 5764 5764 5764 5764 5764 5764 5764 5764 5765 5766 5767 5768 5768 5768 5768 5768 5768 5768 5768 5768 5767 5767 5767
5723 5725 5726 5728 5730 5731 5733 5736 5738 5740 5742 5744 5746 5747 5749 5751 5752 5753 5754 5755 5756 5756 5756 5755 5756 5756 5756 5757 5758 5758 5759 5759 5759 5759 5759 5760 5760 5759 5759 5758 5758 5758 5758
5715 5716 5717 5719 5720 5722 5724 5726 5728 5730 5732 5734 5736 5738 5739 5741 5742 5744 5745 5746 5747 5747 5748 5748 5748 5748 5749 5749 5750 5750 5750 5750 5750 5750 5750 5750 5751 5751 5751 5750 5749 5749 5749
5706 5707 5708 5709 5711 5713 5715 5717 5719 5721 5723 5724 5726 5728 5730 5732 5734 5734 5735 5737 5737 5738 5738 5739 5740 5740 5740 5741 5741 5741 5741 5741 5742 5741 5741 5741 5741 5741 5742 5741 5740 5740 5739
5698 5698 5699 5700 5702 5704 5706 5708 5709 5711 5713 5715 5716 5718 5720 5722 5723 5724 5726 5727 5727 5728 5729 5730 5730 5731 5731 5732 5732 5732 5732 5732 5732 5732 5731 5731 5731 5731 5731 5731 5731 5730 5730
5689 5690 5691 5692 5693 5695 5696 5698 5700 5702 5704 5705 5707 5708 5710 5711 5713 5714 5716 5717 5717 5718 5718 5719 5720 5720 5721 5722 5722 5722 5722 5721 5721 5722 5721 5721 5721 5721 5721 5721 5721 5721 5720
5682 5682 5683 5684 5685 5686 5688 5689 5691 5692 5694 5696 5697 5698 5700 5701 5703 5704 5705 5706 5707 5708 5708 5708 5709 5710 5710 5711 5711 5712 5711 5711 5711 5711 5711 5711 5711 5711 5710 5710 5711 5710 5710
5674 5674 5675 5675 5676 5677 5678 5680 5681 5683 5684 5686 5687 5689 5690 5691 5692 5693 5694 5695 5696 5697 5698 5698 5699 5699 5699 5699 5700 5700 5700 5700 5700 5700 5700 5700 5700 5700 5699 5699 5699 5699 5699
5665 5666 5666 5667 5667 5667 5668 5670 5671 5672 5674 5675 5676 5678 5679 5680 5681 5682 5683 5684 5685 5686 5687 5688 5688 5688 5688 5688 5688 5689 5689 5689 5689 5689 5689 5689 5689 5689 5688 5688 5687 5687 5687
5656 5657 5657 5657 5657 5658 5658 5659 5660 5661 5663 5664 5666 5667 5669 5670 5671 5671 5672 5673 5674 5675 5675 5676 5676 5677 5677 5677 5677 5677 5677 5677 5678 5678 5677 5677 5677 5677 5676 5676 5675 5675 5675
5647 5647 5647 5647 5648 5648 5648 5649 5650 5651 5652 5653 5655 5656 5658 5659 5660 5661 5661 5662 5662 5663 5664 5664 5665 5665 5665 5665 5665 5665 5665 5665 5665 5665 5665 5665 5664 5664 5664 5663 5663 5662 5661
5638 5638 5638 5638 5638 5638 5639 5639 5640 5641 5642 5643 5644 5645 5646 5647 5648 5649 5650 5650 5651 5651 5652 5652 5653 5653 5653 5653 5653 5653 5653 5653 5653 5653 5652 5652 5651 5651 5650 5650 5649 5649 5648
5630 5629 5629 5629 5629 5629 5630 5630 5630 5631 5631 5632 5633 5634 5635 5636 5637 5638 5638 5639 5639 5639 5640 5640 5640 5641 5641 5641 5641 5641 5640 5640 5640 5640 5640 5639 5639 5638 5637 5636 5636 5635 5635
5621 5621 5620 5620 5620 5621 5621 5620 5620 5621 5621 5622 5623 5623 5624 5625 5626 5626 5627 5627 5627 5627 5628 5628 5628 5628 5628 5628 5628 5628 5628 5627 5627 5627 5626 5626 5625 5625 5624 5623 5622 5621 5621
5612 5612 5611 5612 5611 5611 5611 5611 5611 5611 5611 5611 5612 5612 5613 5614 5614 5614 5615 5615 5615 5615 5615 5615 5615 5615 5615 5615 5615 5615 5614 5614 5614 5614 5613 5612 5612 5611 5610 5609 5608 5607 5607
5603 5603 5602 5602 5602 5602 5602 5602 5602 5601 5601 5601 5601 5601 5601 5602 5602 5602 5602 5603 5603 5603 5602 5602 5602 5602 5602 5602 5601 5601 5601 5601 5600 5600 5599 5598 5598 5597 5596 5595 5594 5594 5593
5594 5594 5594 5594 5593 5593 5592 5592 5592 5591 5591 5591 5591 5590 5590 5590 5590 5590 5590 5590 5590 5590 5589 5589 5589 5589 5589 5588 5587 5587 5586 5586 5586 5585 5585 5584 5584 5583 5582 5581 5581 5580 5579
5586 5585 5585 5585 5585 5584 5583 5583 5582 5581 5581 5581 5580 5580 5579 5579 5579 5578 5578 5577 5577 5577 5577 5576 5576 5575 5575 5574 5573 5572 5572 5571 5571 5571 5571 5570 5570 5569 5568 5568 5567 5566 5566
5576 5576 5576 5576 5576 5575 5574 5573 5572 5572 5571 5571 5570 5569 5568 5568 5567 5567 5566 5565 5564 5564 5563 5563 5562 5562 5561 5560 5559 5558 5558 5557 5557 5557 5556 5556 5556 5555 5554 5554 5553 5553 5552
5568 5567 5566 5566 5566 5565 5564 5563 5562 5562 5561 5560 5559 5558 5557 5556 5555 5555 5554 5553 5552 5551 5551 5550 5549 5549 5548 5547 5545 5544 5544 5544 5543 5543 5542 5542 5542 5541 5540 5539 5539 5539 5538
5558 5558 5557 5557 5556 5555 5554 5553 5552 5551 5550 5549 5548 5547 5546 5545 5544 5543 5542 5541 5540 5539 5539 5538 5537 5536 5535 5534 5533 5531 5530 5529 5529 5529 5529 5529 5528 5527 5526 5525 5525 5525 5524
5549 5549 5548 5547 5546 5545 5544 5542 5541 5540 5540 5539 5538 5537 5535 5534 5533 5532 5530 5529 5528 5527 5526 5525 5524 5523 5522 5521 5520 5519 5517 5517 5517 5517 5516 5516 5515 5514 5513 5513 5512 5511 5511
5540 5540 5539 5538 5537 5535 5534 5533 5531 5530 5529 5529 5528 5527 5525 5524 5522 5521 5519 5517 5516 5515 5514 5513 5512 5511 5510 5509 5508 5507 5506 5505 5504 5504 5504 5503 5502 5501 5501 5500 5499 5498 5497
5531 5530 5529 5528 5527 5525 5524 5523 5522 5521 5520 5519 5518 5517 5516 5514 5512 5510 5508 5506 5505 5503 5502 5501 5500 5499 5498 5497 5496 5495 5494 5493 5493 5492 5491 5491 5489 5489 5488 5488 5486 5485 5484
5522 5521 5520 5519 5517 5516 5514 5513 5512 5511 5510 5510 5508 5507 5505 5504 5502 5500 5498 5496 5494 5492 5491 5490 5488 5488 5487 5485 5484 5483 5483 5482 5482 5481 5480 5479 5478 5477 5476 5476 5474 5473 5472
5513 5512 5511 5509 5508 5506 5505 5504 5503 5502 5501 5500 5499 5497 5495 5494 5492 5489 5487 5485 5484 5482 5480 5478 5477 5476 5475 5474 5473 5473 5472 5471 5470 5469 5469 5468 5466 5465 5465 5464 5463 5461 5460